This demonstration page uses our WeatherBlox Daily Observations layout. Learn more.

Left ArrowRight Arrow

-33.86785, 151.20732

Hourly Observations for July 17, 2016

Temp ( °F °C ) Dew Point ( °F °C ) Humidity (%) Winds ( mph kmh ) Pressure ( in mb ) Visibility ( mi km ) Precip ( " mm )
12:00 am 00:00 Mostly Cloudy 59 15 54 12 82 82 NW 9 15 30.42 1030 30 48 N/A
12:30 am 00:30 Mostly Cloudy with Drizzle 59 15 54 12 82 82 WNW 7 11 30.42 1030 30 48 N/A
1:00 am 01:00 Mostly Cloudy with Light Rain 57 14 54 12 88 88 N 8 13 30.42 1030 30 48 N/A
1:30 am 01:30 Mostly Cloudy 57 14 54 12 88 88 NW 5 7 30.42 1030 30 48 N/A
2:00 am 02:00 Mostly Cloudy with Light Rain 57 14 52 11 82 82 WSW 7 11 30.42 1030 30 48 N/A
2:30 am 02:30 Mostly Cloudy 57 14 52 11 82 82 W 6 9 30.39 1029 30 48 N/A
3:00 am 03:00 Mostly Cloudy 55 13 54 12 94 94 SW 7 11 30.39 1029 30 48 N/A
3:30 am 03:30 Partly Cloudy 57 14 52 11 82 82 WSW 6 9 30.39 1029 30 48 N/A
4:00 am 04:00 Partly Cloudy 57 14 52 11 82 82 NW 6 9 30.39 1029 30 48 N/A
4:30 am 04:30 Mostly Cloudy 55 13 54 12 94 94 W 3 6 30.39 1029 30 48 N/A
5:00 am 05:00 Mostly Cloudy 55 13 52 11 88 88 N 6 9 30.39 1029 30 48 N/A
5:30 am 05:30 Mostly Cloudy 55 13 52 11 88 88 N 8 13 30.39 1029 30 48 N/A
6:00 am 06:00 Mostly Cloudy with Drizzle 55 13 52 11 88 88 NNW 9 15 30.42 1030 30 48 N/A
6:30 am 06:30 Mostly Cloudy 55 13 52 11 88 88 NW 10 17 30.42 1030 30 48 N/A
7:00 am 07:00 Mostly Cloudy 55 13 52 11 88 88 NW 8 13 30.42 1030 30 48 N/A
7:30 am 07:30 Mostly Cloudy 55 13 54 12 94 94 NW 9 15 30.42 1030 30 48 N/A
8:00 am 08:00 Mostly Cloudy 57 14 54 12 88 88 NW 8 13 30.45 1031 30 48 N/A
8:30 am 08:30 Mostly Cloudy with Drizzle 57 14 54 12 88 88 WNW 9 15 30.45 1031 6 9 N/A
8:55 am 08:55 Mostly Cloudy with Drizzle 57 14 55 13 94 94 NNW 8 13 30.45 1031 30 48 N/A
9:00 am 09:00 Mostly Cloudy with Drizzle 57 14 55 13 94 94 NNW 8 13 30.45 1031 30 48 N/A
9:30 am 09:30 Mostly Cloudy with Drizzle 57 14 55 13 94 94 W 7 11 30.45 1031 3 5 N/A
10:00 am 10:00 Mostly Cloudy with Drizzle 61 16 57 14 88 88 W 7 11 30.42 1030 3 5 N/A
10:30 am 10:30 Mostly Cloudy with Drizzle 63 17 57 14 83 83 NW 7 11 30.42 1030 3 5 N/A
11:00 am 11:00 Mostly Cloudy with Drizzle 63 17 55 13 77 77 NW 8 13 30.42 1030 3 5 N/A
11:30 am 11:30 Mostly Cloudy with Drizzle 63 17 57 14 83 83 WNW 8 13 30.39 1029 3 5 N/A
12:00 pm 12:00 Mostly Cloudy 66 19 55 13 68 68 NW 7 11 30.39 1029 30 48 N/A
1:00 pm 13:00 Partly Cloudy 68 20 55 13 64 64 NW 5 7 30.36 1028 30 48 N/A
1:30 pm 13:30 Mostly Cloudy 66 19 55 13 68 68 NW 6 9 30.33 1027 30 48 N/A
2:00 pm 14:00 Mostly Cloudy 68 20 54 12 60 60 NW 5 7 30.33 1027 30 48 N/A
2:30 pm 14:30 Mostly Cloudy 66 19 54 12 64 64 N 7 11 30.30 1026 30 48 N/A
3:00 pm 15:00 Mostly Cloudy 66 19 55 13 68 68 NNE 9 15 30.30 1026 30 48 N/A
3:30 pm 15:30 Mostly Cloudy 66 19 55 13 68 68 NNE 8 13 30.30 1026 30 48 N/A
4:00 pm 16:00 Mostly Cloudy 66 19 55 13 68 68 NNE 7 11 30.30 1026 30 48 N/A
4:30 pm 16:30 Mostly Cloudy 64 18 57 14 78 78 NE 9 15 30.30 1026 30 48 N/A
5:00 pm 17:00 Mostly Cloudy 64 18 57 14 78 78 NE 9 15 30.33 1027 30 48 N/A
5:30 pm 17:30 Mostly Cloudy 64 18 57 14 78 78 NNE 9 15 30.33 1027 30 48 N/A
6:00 pm 18:00 Partly Cloudy 64 18 57 14 78 78 NNE 10 17 30.33 1027 30 48 N/A
6:30 pm 18:30 Mostly Clear 63 17 57 14 83 83 NNE 8 13 30.33 1027 30 48 N/A
7:00 pm 19:00 Mostly Clear 63 17 55 13 77 77 N 7 11 30.33 1027 30 48 N/A
7:30 pm 19:30 Mostly Clear 63 17 55 13 77 77 NNE 6 9 30.33 1027 30 48 N/A
8:00 pm 20:00 Mostly Clear 61 16 55 13 83 83 N 7 11 30.33 1027 7 11 N/A
8:30 pm 20:30 Mostly Clear 61 16 55 13 83 83 N 6 9 30.36 1028 7 11 N/A
9:00 pm 21:00 Mostly Clear 61 16 55 13 83 83 N 7 11 30.33 1027 7 11 N/A
9:30 pm 21:30 Mostly Clear 61 16 55 13 83 83 N 6 9 30.33 1027 7 11 N/A
10:00 pm 22:00 Mostly Clear 59 15 55 13 88 88 NNE 5 7 30.33 1027 7 11 N/A
10:30 pm 22:30 Mostly Clear 59 15 55 13 88 88 N 6 9 30.30 1026 7 11 N/A
11:00 pm 23:00 Mostly Clear 57 14 55 13 94 94 N 7 11 30.30 1026 7 11 N/A
11:30 pm 23:30 Mostly Clear 57 14 54 12 88 88 NNW 7 11 30.30 1026 7 11 N/A

Powered by Vaisala Xweather